Humidity-temperature Sensor

Selected Measurement Type: Relative Humidity

 
Relative Humidity [%]     6 entries per hour
Showing data from 5/1/2022 (00:00:00 Z) to 4/28/2022 (00:01:00 Z)
Previous Next [ Day | 3-Days | 7-Days ]
First Last
Prev [ Day | 3-Days | 7-Days ] Next
First Last

Start Time:     :
End Time:     :     
Time (in GMT) :00 :50 :40 :30 :20 :10
Previous Next [ Day | 3-Days | 7-Days ]
First Last
Prev [ Day | 3-Days | 7-Days ] Next
First Last


123 => good data
MM => data is determined as missing
-- => data not received/configured
Back to Top Back to Top
5/1/2022 00:00 to 23:10 90.61 91.42 91.13 90.66 89.98 89.71
4/30/2022 23:00 to 22:10 89.53 89.69 89.98 89.79 89.85 89.71
4/30/2022 22:00 to 21:10 89.71 90.51 91.52 92.24 93.70 95.44
4/30/2022 21:00 to 20:10 97.05 97.87 98.24 98.67 98.63 98.69
4/30/2022 20:00 to 19:10 98.20 97.87 97.56 97.21 96.53 94.99
4/30/2022 19:00 to 18:10 92.26 86.24 85.91 86.11 85.89 85.66
4/30/2022 18:00 to 17:10 86.38 87.02 87.20 87.78 87.57 87.61
4/30/2022 17:00 to 16:10 87.76 87.86 88.11 88.31 88.85 89.50
4/30/2022 16:00 to 15:10 89.26 88.66 88.07 88.03 88.44 88.66
4/30/2022 15:00 to 14:10 89.16 88.40 87.86 88.60 89.30 89.09
4/30/2022 14:00 to 13:10 89.20 88.77 88.66 88.74 88.70 88.72
4/30/2022 13:00 to 12:10 88.79 89.03 89.30 89.65 89.48 90.24
4/30/2022 12:00 to 11:10 92.03 93.74 95.05 95.24 95.03 94.46
4/30/2022 11:00 to 10:10 93.51 92.32 90.86 90.37 90.51 90.29
4/30/2022 10:00 to 9:10 90.10 90.53 90.92 91.19 90.94 91.03
4/30/2022 09:00 to 8:10 91.54 92.03 92.67 92.63 92.69 93.49
4/30/2022 08:00 to 7:10 93.33 93.41 92.79 92.57 92.75 92.73
4/30/2022 07:00 to 6:10 92.32 92.16 91.48 91.17 90.94 90.70
4/30/2022 06:00 to 5:10 90.98 91.25 91.09 90.94 90.24 90.61
4/30/2022 05:00 to 4:10 90.72 89.90 89.92 90.08 90.53 90.43
4/30/2022 04:00 to 3:10 90.31 90.18 90.22 90.24 90.27 90.18
4/30/2022 03:00 to 2:10 90.02 89.75 89.71 89.48 89.65 89.40
4/30/2022 02:00 to 1:10 89.59 89.96 90.43 89.98 89.73 89.40
4/30/2022 01:00 to 0:10 89.57 89.63 90.00 90.66 90.57 90.33
4/30/2022 00:00 to 23:10 89.71 89.61 89.92 90.92 92.22 93.72
4/29/2022 23:00 to 22:10 93.47 92.34 92.48 92.77 90.72 90.70
4/29/2022 22:00 to 21:10 91.31 90.35 89.07 89.55 89.81 89.57
4/29/2022 21:00 to 20:10 89.69 89.46 89.07 88.42 88.62 88.95
4/29/2022 20:00 to 19:10 89.34 90.02 90.92 91.40 91.56 91.85
4/29/2022 19:00 to 18:10 91.77 91.97 91.68 91.13 91.07 91.09
4/29/2022 18:00 to 17:10 90.92 91.11 91.54 91.74 92.14 92.40
4/29/2022 17:00 to 16:10 92.44 92.59 92.63 92.79 92.67 92.83
4/29/2022 16:00 to 15:10 92.71 92.81 93.22 93.64 94.31 94.74
4/29/2022 15:00 to 14:10 95.55 96.12 96.59 97.05 97.23 97.42
4/29/2022 14:00 to 13:10 97.70 97.83 97.74 98.09 97.91 98.11
4/29/2022 13:00 to 12:10 98.07 98.34 98.67 98.94 99.10 99.12
4/29/2022 12:00 to 11:10 99.04 98.90 98.90 98.71 98.40 98.61
4/29/2022 11:00 to 10:10 98.67 98.85 98.44 98.55 98.59 98.69
4/29/2022 10:00 to 9:10 98.85 98.59 98.71 98.34 98.77 99.20
4/29/2022 09:00 to 8:10 99.53 99.90 100.13 100.64 100.79 100.91
4/29/2022 08:00 to 7:10 100.91 100.91 100.91 100.91 100.91 100.91
4/29/2022 07:00 to 6:10 100.87 100.91 100.89 100.91 100.91 100.91
4/29/2022 06:00 to 5:10 100.91 100.91 100.91 100.91 100.91 100.91
4/29/2022 05:00 to 4:10 100.81 100.72 100.62 100.38 100.27 99.90
4/29/2022 04:00 to 3:10 99.80 99.22 98.85 98.28 97.99 97.40
4/29/2022 03:00 to 2:10 96.64 95.85 95.05 94.54 94.17 94.37
4/29/2022 02:00 to 1:10 94.97 95.20 95.14 95.40 95.63 95.73
4/29/2022 01:00 to 0:10 95.90 96.27 96.31 96.33 96.39 96.51
4/29/2022 00:00 to 23:10 96.66 97.03 97.38 97.70 97.99 98.14
4/28/2022 23:00 to 22:10 98.44 98.77 98.77 98.81 98.59 98.24
4/28/2022 22:00 to 21:10 97.66 97.07 95.79 95.44 95.87 95.92
4/28/2022 21:00 to 20:10 95.14 93.96 92.14 91.62 92.07 92.69
4/28/2022 20:00 to 19:10 92.94 93.16 93.06 93.74 93.94 93.98
4/28/2022 19:00 to 18:10 94.37 94.50 94.46 94.42 94.17 94.15
4/28/2022 18:00 to 17:10 94.29 94.60 94.48 94.60 94.74 94.99
4/28/2022 17:00 to 16:10 95.55 95.79 96.35 96.88 97.48 98.05
4/28/2022 16:00 to 15:10 98.79 99.78 99.96 100.13 100.33 100.68
4/28/2022 15:00 to 14:10 100.87 100.91 100.91 100.91 100.91 100.91
4/28/2022 14:00 to 13:10 100.91 100.91 100.91 100.91 100.91 100.91
4/28/2022 13:00 to 12:10 100.91 100.91 100.91 100.91 100.91 100.91
4/28/2022 12:00 to 11:10 100.87 100.70 100.52 99.94 99.55 98.88
4/28/2022 11:00 to 10:10 98.05 97.29 97.13 96.88 96.72 96.45
4/28/2022 10:00 to 9:10 96.08 95.63 95.14 94.56 94.37 94.29
4/28/2022 09:00 to 8:10 94.40 93.80 93.51 93.84 93.16 91.93
4/28/2022 08:00 to 7:10 91.40 91.31 92.42 92.71 92.83 92.85
4/28/2022 07:00 to 6:10 92.18 90.86 91.58 92.81 94.23 94.37
4/28/2022 06:00 to 5:10 93.94 94.81 96.08 96.98 97.42 97.23
4/28/2022 05:00 to 4:10 97.29 96.84 96.84 96.33 96.10 96.37
4/28/2022 04:00 to 3:10 96.59 96.72 96.80 96.55 95.98 95.79
4/28/2022 03:00 to 2:10 94.58 92.87 93.12 93.04 92.83 93.06
4/28/2022 02:00 to 1:10 93.39 93.82 94.40 94.44 94.74 95.09
4/28/2022 01:00 to 0:10 95.07 95.67 96.27 96.29 96.55 96.82